| time (UTC) | temp F | wind direction | speed MPH | gust MPH | rain 1hr in | rain 24hr in | rain mn in | humidity % | barometer mb |
| 20260503054533 | 49 | 281 | 2.0 | 6.0 | 0.00 | 0.00 | 0.00 | 56 | 1012.7 |
| 20260503053021 | 51 | 157 | 1.0 | 2.0 | 0.00 | 0.00 | 0.00 | 52 | 1012.6 |
| 20260503051521 | 53 | 157 | 0.0 | 2.0 | 0.00 | 0.00 | 0.00 | 50 | 1012.6 |
| 20260503050020 | 54 | 121 | 0.0 | 0.0 | 0.00 | 0.00 | 0.00 | 49 | 1012.5 |
| 20260503044535 | 55 | 115 | 0.0 | 0.0 | 0.00 | 0.00 | 0.00 | 48 | 1012.6 |
| 20260503043020 | 56 | 115 | 0.0 | 0.0 | 0.00 | 0.00 | 0.00 | 47 | 1012.7 |
| 20260503041519 | 56 | 115 | 0.0 | 2.0 | 0.00 | 0.00 | 0.00 | 47 | 1012.7 |
| 20260503040018 | 57 | 115 | 0.0 | 2.0 | 0.00 | 0.00 | 0.00 | 45 | 1012.7 |
| 20260503034521 | 57 | 115 | 1.0 | 4.0 | 0.00 | 0.00 | 0.00 | 45 | 1012.7 |
| 20260503033018 | 57 | 138 | 0.0 | 2.0 | 0.00 | 0.00 | 0.00 | 46 | 1012.6 |
| 20260503031517 | 58 | 138 | 0.0 | 3.0 | 0.00 | 0.00 | 0.00 | 44 | 1012.6 |
| 20260503030018 | 59 | 94 | 2.0 | 4.0 | 0.00 | 0.00 | 0.00 | 43 | 1012.4 |
| 20260503024517 | 60 | 76 | 1.0 | 3.0 | 0.00 | 0.00 | 0.00 | 42 | 1012.2 |
| 20260503023016 | 60 | 81 | 2.0 | 4.0 | 0.00 | 0.00 | 0.00 | 41 | 1012.2 |
| 20260503021515 | 62 | 81 | 2.0 | 4.0 | 0.00 | 0.00 | 0.00 | 39 | 1012.2 |
| 20260503020015 | 63 | 68 | 2.0 | 3.0 | 0.00 | 0.00 | 0.00 | 38 | 1012.2 |
| 20260503014517 | 63 | 61 | 2.0 | 6.0 | 0.00 | 0.00 | 0.00 | 37 | 1012.1 |
| 20260503013024 | 63 | 69 | 3.0 | 6.0 | 0.00 | 0.00 | 0.00 | 36 | 1012.2 |
| 20260503011514 | 64 | 46 | 3.0 | 7.0 | 0.00 | 0.00 | 0.00 | 36 | 1012.2 |
| 20260503010013 | 64 | 5 | 2.0 | 6.0 | 0.00 | 0.00 | 0.00 | 35 | 1012.3 |
| 20260503004514 | 65 | 82 | 5.0 | 8.0 | 0.00 | 0.00 | 0.00 | 35 | 1012.4 |
| 20260503003013 | 65 | 294 | 0.0 | 4.0 | 0.00 | 0.00 | 0.00 | 34 | 1012.5 |
| 20260503001512 | 66 | 339 | 4.0 | 7.0 | 0.00 | 0.00 | 0.00 | 33 | 1012.5 |
| 20260503000011 | 65 | 53 | 3.0 | 9.0 | 0.00 | 0.00 | 0.00 | 34 | 1012.5 |
| 20260502234511 | 65 | 346 | 2.0 | 5.0 | 0.00 | 0.00 | 0.00 | 34 | 1012.6 |
| 20260502233011 | 65 | 49 | 3.0 | 9.0 | 0.00 | 0.00 | 0.00 | 34 | 1012.9 |
| 20260502231517 | 65 | 36 | 2.0 | 10.0 | 0.00 | 0.00 | 0.00 | 34 | 1013.1 |
| 20260502230010 | 65 | 348 | 3.0 | 9.0 | 0.00 | 0.00 | 0.00 | 34 | 1013.2 |
| 20260502224511 | 66 | 323 | 1.0 | 8.0 | 0.00 | 0.00 | 0.00 | 33 | 1013.4 |
| 20260502223010 | 66 | 5 | 4.0 | 9.0 | 0.00 | 0.00 | 0.00 | 33 | 1013.5 |
| 20260502221508 | 65 | 304 | 3.0 | 10.0 | 0.00 | 0.00 | 0.00 | 34 | 1013.8 |
| 20260502220009 | 66 | 336 | 6.0 | 9.0 | 0.00 | 0.00 | 0.00 | 34 | 1013.9 |
| 20260502214506 | 66 | 273 | 3.0 | 8.0 | 0.00 | 0.00 | 0.00 | 34 | 1014.1 |
| 20260502213004 | 65 | 279 | 6.0 | 11.0 | 0.00 | 0.00 | 0.00 | 35 | 1014.3 |
| 20260502211502 | 65 | 78 | 2.0 | 13.0 | 0.00 | 0.00 | 0.00 | 35 | 1014.3 |
| 20260502210001 | 65 | 11 | 5.0 | 10.0 | 0.00 | 0.00 | 0.00 | 36 | 1014.5 |
| 20260502204600 | 64 | 317 | 4.0 | 8.0 | 0.00 | 0.00 | 0.00 | 36 | 1014.7 |
| 20260502203059 | 64 | 355 | 7.0 | 12.0 | 0.00 | 0.00 | 0.00 | 36 | 1014.8 |
| 20260502201605 | 64 | 302 | 7.0 | 16.0 | 0.00 | 0.00 | 0.00 | 37 | 1015.0 |
| 20260502200058 | 64 | 355 | 4.0 | 13.0 | 0.00 | 0.00 | 0.00 | 36 | 1015.1 |
| 20260502194614 | 64 | 24 | 5.0 | 14.0 | 0.00 | 0.00 | 0.00 | 35 | 1015.3 |
| 20260502193107 | 63 | 349 | 7.0 | 12.0 | 0.00 | 0.00 | 0.00 | 36 | 1015.4 |
| 20260502191601 | 63 | 336 | 7.0 | 16.0 | 0.00 | 0.00 | 0.00 | 38 | 1015.6 |
| 20260502190054 | 63 | 55 | 3.0 | 12.0 | 0.00 | 0.00 | 0.00 | 37 | 1015.6 |
| 20260502184602 | 61 | 29 | 8.0 | 15.0 | 0.00 | 0.00 | 0.00 | 39 | 1015.8 |
| 20260502183052 | 63 | 100 | 9.0 | 14.0 | 0.00 | 0.00 | 0.00 | 38 | 1015.8 |
| 20260502181552 | 63 | 16 | 7.0 | 15.0 | 0.00 | 0.00 | 0.00 | 38 | 1015.9 |
| 20260502163045 | 61 | 355 | 4.0 | 12.0 | 0.00 | 0.00 | 0.00 | 43 | 1016.0 |
| 20260502161557 | 61 | 15 | 7.0 | 12.0 | 0.00 | 0.00 | 0.00 | 43 | 1016.0 |
| 20260502151530 | 58 | 22 | 6.0 | 10.0 | 0.00 | 0.00 | 0.00 | 45 | 1015.8 |
| 20260502123006 | 45 | 9 | 3.0 | 9.0 | 0.00 | 0.00 | 0.00 | 60 | 1015.1 |
| 20260502121504 | 47 | 13 | 7.0 | 13.0 | 0.00 | 0.00 | 0.00 | 57 | 1015.0 |
| 20260502114601 | 48 | 40 | 5.0 | 12.0 | 0.00 | 0.00 | 0.00 | 55 | 1014.7 |
| 20260502113059 | 49 | 76 | 8.0 | 15.0 | 0.00 | 0.00 | 0.00 | 54 | 1014.3 |
| 20260502111557 | 50 | 67 | 8.0 | 16.0 | 0.00 | 0.00 | 0.00 | 52 | 1014.2 |
| 20260502110056 | 50 | 13 | 4.0 | 16.0 | 0.00 | 0.00 | 0.00 | 51 | 1014.1 |
| 20260502104555 | 49 | 37 | 6.0 | 13.0 | 0.00 | 0.00 | 0.00 | 52 | 1013.7 |
| 20260502103051 | 50 | 34 | 6.0 | 14.0 | 0.00 | 0.00 | 0.00 | 49 | 1013.6 |
| 20260502101556 | 50 | 46 | 7.0 | 12.0 | 0.00 | 0.00 | 0.00 | 49 | 1013.5 |
| 20260502071529 | 44 | 301 | 2.0 | 3.0 | 0.00 | 0.00 | 0.00 | 52 | 1012.2 |
| 20260502070026 | 44 | 304 | 2.0 | 4.0 | 0.00 | 0.00 | 0.00 | 51 | 1012.2 |
| 20260502064520 | 45 | 304 | 1.0 | 2.0 | 0.00 | 0.00 | 0.00 | 49 | 1012.2 |
| 20260502063019 | 46 | 302 | 1.0 | 4.0 | 0.00 | 0.00 | 0.00 | 48 | 1012.2 |
| 20260502061514 | 48 | 304 | 3.0 | 5.0 | 0.00 | 0.00 | 0.00 | 43 | 1012.2 |
| 20260502060010 | 51 | 317 | 2.0 | 4.0 | 0.00 | 0.00 | 0.00 | 39 | 1012.0 |